Location: Ohmer (historical)
(38.0096°N, 122.0227°W)
Time: 02:38:46
(UTC+00:00)

Cosmos 1346 Rocket - Pass Details

Date: 14 February 2026
Orbit: 476 x 485 km, 81.2° (Epoch: 13 March)

Event Time Altitude Azimuth Distance (km) Brightness Sun altitude
Rises 14:13:58 0° 351° (N) 2,561 6.1 -9.5°
Reaches altitude 10° 14:16:05 10° 353° (N) 1,677 5.1 -9.1°
Maximum altitude 14:19:46 84° 80° (E) 495 2.6 -8.4°
Drops below altitude 10° 14:23:25 10° 170° (S) 1,667 5.6 -7.7°
Sets 14:25:31 0° 171° (S) 2,543 6.5 -7.3°
